START_TIME,STEP,MOV.,M6,t_acc.,M7,t_acc.,M19,t_acc.,H36,t_acc.
1979-03-03 13:15:52.590 ,0,0,19.,12.0,0.,12.0,0.,12.0,13.,12.0
1979-03-03 13:16:04.590 ,0,0,10.,12.0,0.,12.0,0.,12.0,7.,12.0
1979-03-03 13:16:16.590 ,2,1,20.,12.0,0.,12.0,0.,12.0,8.,12.0
1979-03-03 13:16:28.590 ,2,1,8.,12.0,0.,12.0,0.,12.0,5.,12.0
1979-03-03 13:16:40.590 ,1,1,11.,12.0,0.,12.0,0.,12.0,3.,12.0
1979-03-03 13:16:52.590 ,1,1,11.,12.0,0.,12.0,0.,12.0,1.,12.0
1979-03-03 13:17:04.590 ,0,1,7.,12.0,0.,12.0,0.,12.0,4.,12.0
1979-03-03 13:17:16.590 ,0,1,11.,12.0,0.,12.0,0.,12.0,5.,12.0
1979-03-03 13:17:28.590 ,0,1,18.,12.0,0.,12.0,0.,12.0,3.,12.0
1979-03-03 13:17:40.590 ,0,1,8.,12.0,0.,12.0,0.,12.0,5.,12.0
1979-03-03 13:17:52.590 ,1,1,14.,12.0,0.,12.0,0.,12.0,11.,12.0
1979-03-03 13:18:04.590 ,1,1,6.,12.0,0.,12.0,0.,12.0,5.,12.0
1979-03-03 13:18:16.590 ,2,1,11.,12.0,0.,12.0,0.,12.0,2.,12.0
1979-03-03 13:18:28.590 ,2,1,6.,12.0,0.,12.0,0.,12.0,3.,12.0
1979-03-03 13:18:40.590 ,3,1,10.,12.0,0.,12.0,0.,12.0,3.,12.0
1979-03-03 13:18:52.590 ,3,1,8.,12.0,0.,12.0,0.,12.0,6.,12.0
1979-03-03 13:19:04.590 ,3,0,19.,12.0,0.,12.0,0.,12.0,7.,12.0
1979-03-03 13:19:16.590 ,3,0,,0,,0,,0,,0
1979-03-03 13:19:28.590 ,5,1,19.,12.0,0.,12.0,0.,12.0,6.,12.0
1979-03-03 13:19:40.590 ,5,1,32.,12.0,0.,12.0,0.,12.0,14.,12.0
1979-03-03 13:19:52.590 ,6,1,18.,12.0,0.,12.0,0.,12.0,11.,12.0
1979-03-03 13:20:04.590 ,6,1,32.,12.0,0.,12.0,0.,12.0,11.,12.0
1979-03-03 13:20:16.590 ,7,1,24.,12.0,0.,12.0,0.,12.0,16.,12.0
1979-03-03 13:20:28.590 ,7,1,3.,12.0,0.,12.0,0.,12.0,0.,12.0
1979-03-03 13:20:40.590 ,7,1,0.,12.0,0.,12.0,0.,12.0,0.,12.0
1979-03-03 13:20:52.590 ,7,1,0.,12.0,0.,12.0,0.,12.0,0.,12.0
1979-03-03 13:21:04.590 ,6,1,0.,12.0,0.,12.0,0.,12.0,0.,12.0
1979-03-03 13:21:16.590 ,6,1,14.,12.0,0.,12.0,0.,12.0,9.,12.0
1979-03-03 13:21:28.590 ,5,0,,0,,0,,0,,0
1979-03-03 13:21:40.590 ,5,0,,0,,0,,0,,0
1979-03-03 13:21:52.590 ,5,0,,0,,0,,0,,0
1979-03-03 13:22:04.590 ,5,0,,0,,0,,0,,0
1979-03-03 13:22:16.590 ,0,0,20.,12.0,0.,12.0,0.,12.0,14.,12.0
1979-03-03 13:22:28.590 ,0,0,11.,12.0,0.,12.0,131072.,12.0,196608.,12.0
1979-03-03 13:22:40.590 ,0,0,,0,,0,,0,,0
1979-03-03 13:22:52.590 ,0,0,,0,,0,,0,,0
1979-03-03 14:39:29.190 ,0,0,5.,12.0,0.,12.0,0.,12.0,7.,12.0
1979-03-03 14:39:41.190 ,0,0,7.,12.0,0.,12.0,0.,12.0,4.,12.0
1979-03-03 14:39:52.590 ,1,1,5.,12.0,0.,12.0,0.,12.0,3.,12.0
1979-03-03 14:40:04.590 ,1,1,7.,12.0,0.,12.0,0.,12.0,3.,12.0
1979-03-03 14:40:16.590 ,0,1,12.,12.0,0.,12.0,0.,12.0,6.,12.0
1979-03-03 14:40:28.590 ,0,1,13.,12.0,0.,12.0,0.,12.0,2.,12.0
1979-03-03 14:40:40.590 ,0,1,7.,12.0,0.,12.0,0.,12.0,7.,12.0
1979-03-03 14:40:52.590 ,0,1,17.,12.0,0.,12.0,0.,12.0,8.,12.0
1979-03-03 14:41:04.590 ,1,1,13.,12.0,0.,12.0,0.,12.0,8.,12.0
1979-03-03 14:41:16.590 ,1,1,5.,12.0,0.,12.0,0.,12.0,2.,12.0
1979-03-03 14:41:28.590 ,2,1,7.,12.0,0.,12.0,0.,12.0,7.,12.0
1979-03-03 14:41:40.590 ,2,1,6.,12.0,0.,12.0,0.,12.0,7.,12.0
1979-03-03 14:41:52.590 ,3,1,9.,12.0,0.,12.0,0.,12.0,7.,12.0
1979-03-03 14:42:04.590 ,3,1,10.,12.0,0.,12.0,0.,12.0,5.,12.0
1979-03-03 14:42:16.590 ,4,1,11.,12.0,0.,12.0,0.,12.0,8.,12.0
1979-03-03 14:42:28.590 ,4,1,9.,12.0,0.,12.0,0.,12.0,8.,12.0
1979-03-03 14:42:40.590 ,5,1,18.,12.0,0.,12.0,0.,12.0,7.,12.0
1979-03-03 14:42:52.590 ,5,1,23.,12.0,0.,12.0,0.,12.0,8.,12.0
1979-03-03 14:43:04.590 ,6,1,24.,12.0,0.,12.0,0.,12.0,10.,12.0
1979-03-03 14:43:16.590 ,6,1,20.,12.0,0.,12.0,0.,12.0,9.,12.0
1979-03-03 14:43:28.590 ,7,1,21.,12.0,0.,12.0,0.,12.0,16.,12.0
1979-03-03 14:43:40.590 ,7,1,2.,12.0,0.,12.0,0.,12.0,0.,12.0
1979-03-03 14:43:52.590 ,7,1,0.,12.0,0.,12.0,0.,12.0,0.,12.0
1979-03-03 14:44:04.590 ,7,1,0.,12.0,0.,12.0,0.,12.0,0.,12.0
1979-03-03 14:44:16.590 ,6,1,0.,12.0,0.,12.0,0.,12.0,0.,12.0
1979-03-03 14:44:28.590 ,6,1,19.,12.0,0.,12.0,0.,12.0,8.,12.0
1979-03-03 14:44:40.590 ,5,1,18.,12.0,0.,12.0,0.,12.0,11.,12.0
1979-03-03 14:44:52.590 ,5,1,15.,12.0,0.,12.0,0.,12.0,10.,12.0
1979-03-03 14:45:04.590 ,4,1,26.,12.0,0.,12.0,0.,12.0,15.,12.0
1979-03-03 14:45:16.590 ,4,1,22.,12.0,0.,12.0,0.,12.0,8.,12.0
1979-03-03 14:45:28.590 ,3,1,19.,12.0,0.,12.0,0.,12.0,16.,12.0
1979-03-03 14:45:40.590 ,3,1,12.,12.0,0.,12.0,0.,12.0,10.,12.0
1979-03-03 14:45:52.590 ,2,1,13.,12.0,0.,12.0,0.,12.0,4.,12.0
1979-03-03 14:46:04.590 ,2,1,7.,12.0,0.,12.0,0.,12.0,3.,12.0
1979-03-03 14:46:16.590 ,1,1,5.,12.0,0.,12.0,0.,12.0,1.,12.0
1979-03-03 14:46:28.590 ,1,1,13.,12.0,0.,12.0,0.,12.0,5.,12.0
1979-03-03 14:46:40.590 ,0,1,8.,12.0,0.,12.0,0.,12.0,2.,12.0
1979-03-03 14:46:52.590 ,0,1,10.,12.0,0.,12.0,0.,12.0,5.,12.0
1979-03-03 14:47:04.590 ,0,1,9.,12.0,0.,12.0,0.,12.0,8.,12.0
1979-03-03 14:47:16.590 ,0,1,14.,12.0,0.,12.0,0.,12.0,1.,12.0
1979-03-03 14:47:28.590 ,1,1,11.,12.0,0.,12.0,0.,12.0,7.,12.0
1979-03-03 14:47:40.590 ,1,1,10.,12.0,0.,12.0,0.,12.0,5.,12.0
1979-03-03 14:47:52.590 ,2,1,6.,12.0,0.,12.0,0.,12.0,6.,12.0
1979-03-03 14:48:04.590 ,2,1,9.,12.0,0.,12.0,0.,12.0,4.,12.0
1979-03-03 14:48:16.590 ,3,1,6.,12.0,0.,12.0,0.,12.0,2.,12.0
1979-03-03 14:48:28.590 ,3,1,8.,12.0,0.,12.0,0.,12.0,8.,12.0
1979-03-03 14:48:40.590 ,4,1,10.,12.0,0.,12.0,0.,12.0,5.,12.0
1979-03-03 14:48:52.590 ,4,1,18.,12.0,0.,12.0,0.,12.0,10.,12.0
1979-03-03 14:49:04.590 ,5,1,17.,12.0,0.,12.0,0.,12.0,6.,12.0
1979-03-03 14:49:16.590 ,5,1,15.,12.0,0.,12.0,0.,12.0,5.,12.0
1979-03-03 14:49:28.590 ,6,1,20.,12.0,0.,12.0,0.,12.0,15.,12.0
1979-03-03 14:49:40.590 ,6,1,21.,12.0,0.,12.0,0.,12.0,5.,12.0
1979-03-03 14:49:52.590 ,7,1,17.,12.0,0.,12.0,0.,12.0,6.,12.0
1979-03-03 14:50:04.590 ,7,1,2.,12.0,0.,12.0,0.,12.0,1.,12.0
1979-03-03 14:50:16.590 ,7,1,0.,12.0,0.,12.0,0.,12.0,0.,12.0
1979-03-03 14:50:28.590 ,7,1,0.,12.0,0.,12.0,0.,12.0,0.,12.0
1979-03-03 14:50:40.590 ,6,1,0.,12.0,0.,12.0,0.,12.0,0.,12.0
1979-03-03 14:50:52.590 ,6,1,15.,12.0,0.,12.0,0.,12.0,12.,12.0
1979-03-03 14:51:04.590 ,5,1,11.,12.0,0.,12.0,0.,12.0,11.,12.0
1979-03-03 14:51:16.590 ,5,1,22.,12.0,0.,12.0,0.,12.0,10.,12.0
1979-03-03 14:51:28.590 ,4,1,18.,12.0,0.,12.0,0.,12.0,7.,12.0
1979-03-03 14:51:40.590 ,4,1,18.,12.0,0.,12.0,0.,12.0,10.,12.0
1979-03-03 14:51:52.590 ,3,1,10.,12.0,0.,12.0,0.,12.0,4.,12.0
1979-03-03 14:52:04.590 ,3,1,12.,12.0,0.,12.0,0.,12.0,11.,12.0
1979-03-03 14:52:16.590 ,2,1,13.,12.0,0.,12.0,0.,12.0,4.,12.0
1979-03-03 14:52:28.590 ,2,1,10.,12.0,0.,12.0,0.,12.0,6.,12.0
1979-03-03 14:52:40.590 ,1,1,7.,12.0,0.,12.0,0.,12.0,3.,12.0
1979-03-03 14:52:52.590 ,1,1,7.,12.0,0.,12.0,0.,12.0,2.,12.0
1979-03-03 14:53:04.590 ,0,1,3.,12.0,0.,12.0,0.,12.0,8.,12.0
1979-03-03 14:53:16.590 ,0,1,22.,12.0,0.,12.0,0.,12.0,8.,12.0
1979-03-03 14:53:28.590 ,0,1,15.,12.0,0.,12.0,0.,12.0,10.,12.0
1979-03-03 14:53:40.590 ,0,1,13.,12.0,0.,12.0,0.,12.0,8.,12.0
1979-03-03 14:53:52.590 ,1,1,10.,12.0,0.,12.0,0.,12.0,12.,12.0
1979-03-03 14:54:04.590 ,1,1,13.,12.0,0.,12.0,0.,12.0,3.,12.0
1979-03-03 14:54:16.590 ,2,1,8.,12.0,0.,12.0,0.,12.0,9.,12.0
1979-03-03 14:54:28.590 ,2,1,7.,12.0,0.,12.0,0.,12.0,1.,12.0
1979-03-03 14:54:40.590 ,3,1,13.,12.0,0.,12.0,0.,12.0,4.,12.0
1979-03-03 14:54:52.590 ,3,1,11.,12.0,0.,12.0,0.,12.0,3.,12.0
1979-03-03 14:55:04.590 ,4,1,8.,12.0,0.,12.0,0.,12.0,6.,12.0
1979-03-03 14:55:16.590 ,4,1,21.,12.0,0.,12.0,0.,12.0,6.,12.0
1979-03-03 14:55:28.590 ,5,1,15.,12.0,0.,12.0,0.,12.0,4.,12.0
1979-03-03 14:55:40.590 ,5,1,26.,12.0,0.,12.0,0.,12.0,15.,12.0
1979-03-03 14:55:52.590 ,6,1,12.,12.0,0.,12.0,0.,12.0,15.,12.0
1979-03-03 14:56:04.590 ,6,1,17.,12.0,0.,12.0,0.,12.0,11.,12.0
1979-03-03 14:56:16.590 ,7,1,22.,12.0,0.,12.0,0.,12.0,16.,12.0
1979-03-03 14:56:28.590 ,7,1,1.,12.0,0.,12.0,0.,12.0,0.,12.0
1979-03-03 14:56:40.590 ,7,1,0.,12.0,0.,12.0,0.,12.0,0.,12.0
1979-03-03 14:56:52.590 ,7,1,0.,12.0,0.,12.0,0.,12.0,0.,12.0
1979-03-03 14:57:04.590 ,6,1,0.,12.0,0.,12.0,0.,12.0,0.,12.0
1979-03-03 14:57:16.590 ,6,1,18.,12.0,0.,12.0,0.,12.0,7.,12.0
1979-03-03 14:57:28.590 ,5,1,27.,12.0,0.,12.0,0.,12.0,9.,12.0
1979-03-03 14:57:40.590 ,5,1,24.,12.0,0.,12.0,0.,12.0,10.,12.0
1979-03-03 14:57:52.590 ,4,1,16.,12.0,0.,12.0,0.,12.0,21.,12.0
1979-03-03 14:58:04.590 ,4,1,15.,12.0,0.,12.0,0.,12.0,4.,12.0
1979-03-03 14:58:16.590 ,3,1,16.,12.0,0.,12.0,0.,12.0,4.,12.0
1979-03-03 14:58:28.590 ,3,1,13.,12.0,0.,12.0,0.,12.0,10.,12.0
1979-03-03 14:58:40.590 ,2,1,7.,12.0,0.,12.0,0.,12.0,7.,12.0
1979-03-03 14:58:52.590 ,2,1,4.,12.0,0.,12.0,0.,12.0,4.,12.0
1979-03-03 14:59:04.590 ,1,1,9.,12.0,0.,12.0,0.,12.0,1.,12.0
1979-03-03 14:59:16.590 ,1,1,8.,12.0,0.,12.0,0.,12.0,7.,12.0
1979-03-03 14:59:28.590 ,0,1,12.,12.0,0.,12.0,0.,12.0,6.,12.0
1979-03-03 14:59:40.590 ,0,1,6.,12.0,0.,12.0,0.,12.0,4.,12.0
1979-03-03 14:59:52.590 ,0,1,6.,12.0,0.,12.0,0.,12.0,7.,12.0
1979-03-03 15:00:04.590 ,0,1,9.,12.0,0.,12.0,0.,12.0,1.,12.0
